Terug naar catalogus

COSMOS 970 DEB

ActiefLEO
NORAD 10573·DEBRIS·🇷🇺 Russia

Gelanceerd Dec 21, 1977 vanaf Baikonur Cosmodrome

Loading…

Volgende Passages (komende 24 uur)

TLE

VersSource: Space-Track

Epoch: Sep 13, 2026, 21:28 UTC

1 10573U 77121Q   26256.89448399  .00000016  00000-0  13138-3 0  9995
2 10573  66.3620  71.5474 0086668  15.8610  94.7921 13.52031027401960

Volg COSMOS 970 DEB in realtime met AllMySat

Download on the App Store